www.pogodaiklimat.ru

Погода и климат >> Архив погоды >> Россия >> Забайкальский край >> Могзон


ПОГОДА в Могзоне

  • Прогноз погоды в Могзоне
  • Монитор погоды в Могзоне

АРХИВ ПОГОДЫ в Могзоне

Время (UTC), дата Ветер
(напр.,м/с)
 
Видим.   Явления Облачность Т
(С)
Тd
(С)
f
(%)
Тe
(С)
Тes
(С)
Комфортность P
(гПа)
Po
(гПа)
Тmin
(С)
Tmax
(С)
R
(мм)
R24
(мм)
S
(см)
21 9.09 штиль 0 1000 м дымка 9/9 100 м
[St]
-1.0 -1.6 96 -2 -2 1025.0 916.0
00 10.09 З 1 200 м туман ?/? -0.1 -0.6 96 -2 -2 1024.4 915.9 -1.7
03 10.09 штиль 0 50 км {туман} 1/1 600 м
[Cu hum]
+13.4 +3.7 52 +13 +23 1019.2 916.0
06 10.09 ЮЗ 4 50 км {туман} 4/1 1000 м
[Cu hum Ci fib]
+18.5 +0.6 30 +18 +22 1015.9 914.7
09 10.09 Ю 3 50 км 8/1 600 м
[Sc diur, vesp Ac lent Ci fib]
+18.8 +2.2 33 +19 +20 1014.2 913.3
12 10.09 В 1 50 км 10/4 600 м
[Sc Ac lent Cs]
+12.8 +6.1 64 +13 +13 1014.8 912.0 +19.2
15 10.09 штиль 0 н/о н/о +12.3 +7.0 70 +12 +12 1015.0 912.0
18 10.09 СЗ 1 н/о н/о +9.3 +7.1 86 +9 +9 1014.7 910.7
21 10.09 СВ 2 50 км 3/1 600 м
[Sc Ac lent]
+3.8 +2.5 91 +1 +1 1017.0 910.7
00 11.09 штиль 0 50 км 3/0
[Ci fib]
+8.3 +5.2 81 +8 +10 1014.3 909.9 +3.2
03 11.09 В 1 50 км 6/1 1000 м
[Cu med, cong Ci fib]
+20.1 +4.2 35 +22 +26 комфорт 1009.3 909.3
06 11.09 З 7-10
{10}
50 км 1/0
[Ci fib]
+23.7 +4.8 29 +23 +26 комфорт 1004.7 906.4
09 11.09 штиль 0
{10}
50 км 1/0
[Ci fib]
+25.9 +4.9 26 +25 +27 комфорт 1002.8 905.3
12 11.09 В 4 50 км 6/3 600 м
[Sc Ci fib]
+16.5 +8.9 61 +16 +16 1003.4 903.0 +26.4
15 11.09 В 3 50 км 4/0
[Ci fib]
+10.4 +7.5 82 +8 +8 1005.4 902.7
18 11.09 СВ 3 50 км 3/0
[Ci fib]
+8.7 +4.7 76 +6 +6 1004.5 901.3
21 11.09 ЮЗ 1 50 км 10/3 600 м
[Sc Cs]
+6.7 +5.2 90 +6 +6 1005.3 901.3
00 12.09 З 4 20 км слаб. ливневой дождь 10/10 600 м
[Cb cap]
+10.3 +7.4 82 +8 +8 1004.6 902.1 +6.3 0.1
03 12.09 З 6 50 км {ливн. осадки} 10/10 600 м
[Cb cap]
+10.2 +6.2 76 +7 +7 1008.4 905.3
06 12.09 З 5
{11}
50 км {ливн. осадки} 10/8 600 м
[Cb cap Cs]
+10.8 +4.4 65 +8 +9 1006.3 903.6
09 12.09 СЗ 6
{10}
50 км 9/4 600 м
[Cb cap Ac cuf Ci ing]
+11.6 +3.9 59 +9 +9 1006.5 904.0
12 12.09 З 3
{10}
50 км 3/1 600 м
[Sc diur, vesp Ac lent]
+7.9 +3.4 73 +5 +5 1008.5 904.5 +11.9 0.0
15 12.09 З 2 50 км 1 балл +7.2 +2.3 71 +5 +5 1011.2 906.7
18 12.09 З 2 50 км 1/1 600 м
[Sc]
+3.9 +1.5 84 +1 +1 1012.7 906.9
00 13.09 ЮЗ 3 50 км 6/3 1000 м
[Sc Ac lent Ci sp]
+5.1 +3.3 88 +2 +2 1014.1 908.7 +2.8
03 13.09 З 3 50 км 9/9 600 м
[Cb cap]
+6.3 +1.6 72 +3 +4 1016.0 910.7
06 13.09 З 5 50 км 5/5 1000 м
[Cb cap]
+11.0 +0.4 48 +9 +11 1012.7 909.3
09 13.09 З 5
{10}
50 км 3/3 600 м
[Sc diur, vesp]
+11.8 -3.2 35 +10 +11 1012.4 909.3
12 13.09 З 1 50 км 1/1 600 м
[Sc diur, vesp]
+3.6 -1.1 71 +2 +2 1014.7 908.6 +11.9
15 13.09 СВ 3 50 км ясно -2.3 -3.3 93 -8 -8 1018.1 909.3
18 13.09 СВ 2 50 км 8/0
[Ci fib]
-3.1 -4.1 93 -7 -7 1018.4 909.3
21 13.09 ЮВ 1 50 км 9/9 1000 м
[Sc]
-0.7 -1.5 94 -3 -3 1014.5 906.7
00 14.09 ЮЗ 2 20 км осадки на расстоянии {ливн. осадки} 10/10 600 м
[Cb cap]
+2.0 +0.8 92 -1 -1 1012.1 905.6 -3.7 0.1
03 14.09 ЮЗ 3 50 км {ливн. осадки} 8/5 600 м
[Cb cap Ci fib]
+7.0 +3.8 80 +4 +6 1011.2 906.7
06 14.09 З 6-10
{10}
50 км {ливн. осадки} 5/4 600 м
[Cb cap Ci fib]
+12.5 -2.0 36 +10 +12 1005.4 903.3
09 14.09 ЮЗ 4
{10}
50 км в посл. час ливневой дождь 9/9 600 м
[Cb cap]
+9.7 +8.0 89 +7 +7 1007.1 904.0
12 14.09 З 4
{12}
50 км {ливн. осадки} 5/3 600 м
[Cb cap Ac lent]
+6.3 -0.7 61 +3 +3 1009.9 905.1 +12.6 0.6
15 14.09 З 7-10
{11}
50 км 5/3 600 м
[Cb cap Ac lent]
+4.7 -5.9 46 -0 -0 1012.3 906.7
18 14.09 З 4
{14}
50 км 1/1 600 м
[Sc]
-0.2 -10.4 46 -5 -5 1018.9 910.7
21 14.09 З 5
{10}
50 км 3/0
[Ac lent Ci fib]
-2.0 -10.1 54 -8 -8 1021.1 912.0
00 15.09 З 7-10
{11}
50 км 8/0
[Ac trans Ci]
-0.7 -9.6 51 -7 -7 1020.5 912.1 -2.5
03 15.09 З 8 50 км 1 балл +4.0 -11.2 32 -1 0 1020.1 913.3
06 15.09 З 8-12
{14}
50 км 4/0
[Ci fib]
+7.4 -13.0 22 +3 +5 1015.0 910.0
09 15.09 З 7 50 км 9 баллов +8.5 -8.1 30 +5 +5 1015.3 910.7
12 15.09 ЮЗ 2
{11}
50 км 9/9 600 м
[Sc]
+5.2 -2.9 56 +3 +3 1015.1 909.4 +8.6
15 15.09 З 1 50 км 10 баллов +4.0 -1.2 69 +3 +3 1017.0 910.7
18 15.09 ЮЗ 2 50 км 10 баллов +4.8 +0.7 75 +2 +2 1015.1 909.3
21 15.09 ЮЗ 1 50 км 2 балла -1.4 -2.4 93 -4 -4 1017.7 909.3
00 16.09 штиль 0 50 км 6/1 1000 м
[Sc Ac lent Ci fib]
+3.4 +0.9 84 +2 +4 1013.4 907.4 -1.7
03 16.09 ЮЗ 5 50 км 6 баллов +12.0 +1.9 50 +10 +12 1009.4 906.7
06 16.09 З 7-10
{14}
50 км 8/4 600 м
[Cb calv Ac cast Ci fib]
+13.2 +1.1 44 +11 +12 1007.0 905.0
09 16.09 З 6 50 км 9 баллов +10.3 +2.6 59 +7 +7 1008.4 905.3
12 16.09 Ю 4
{19}
50 км {ливн. осадки} 9/9 600 м
[Cb cap]
+3.6 +1.5 86 -1 -1 1013.9 907.8 +14.0 2
15 16.09 З 3 50 км 1 балл +1.7 -3.8 67 -2 -2 1019.4 912.0
18 16.09 З 4 50 км ясно +0.1 -4.3 72 -5 -5 1021.6 913.3

 

Местоположение метеостанции Могзон (Забайкальский край, Россия): широта 51.73 долгота 112.00 высота над уровнем моря 907 м.

В архиве по умолчанию представлена погода в Могзоне за последнюю неделю. Архивные данные за месяц целиком и за предыдущие месяцы, начиная с января 2011 года, Вы можете получить, выбрав интересующий диапазон дат из раскрывающегося списка и нажав кнопку "Ввод!".


*Определитесь, кто Вы:
робот инопланетянин человек

Внимание! Время в таблицах - всемирное. Для получения местного времени необходимо прибавить поправку, которая равна 9 ч.

Смотрите также архив погоды в соседних городах и на ближайших метеорологических станциях:

Погода в Улетах (Забайкальский край, Россия) (51 км)
Погода в Усть-Зазе (Бурятия, Россия) (56 км)
Погода в Беклемишево (Забайкальский край, Россия) (61 км)
Погода в Сосново-Озерском (Бурятия, Россия) (95 км)
Погода в Чите (Забайкальский край, Россия) (104 км)
Погода в Хилке (Забайкальский край, Россия) (118 км)
Погода в Курорт-Дарасуне (Забайкальский край, Россия) (132 км)
Погода в Бургени (Забайкальский край, Россия) (140 км)
Погода в Телембе (Бурятия, Россия) (143 км)
Погода в Дульдурге (Забайкальский край, Россия) (157 км)

Пояснения к столбцам:

Ветер - указаны скорость ветра в м/с - средняя за 10 мин, порывы в срок и между сроками (в фигурных скобках) и направление, откуда дует ветер: С - северный, СВ - северо-восточный, В - восточный, ЮВ - юго-восточный, Ю - южный, ЮЗ - юго-западный, З - западный, СЗ - северо-западный.
Видимость - горизонтальная дальность видимости в метрах или километрах. При видимости от 1 до 10 км при отсутствии осадков обычно наблюдается дымка, при ухудшении видимости до 1 км и менее - туман. В сухую погоду видимость может ухудшаться дымом, пылью или мглою.
Явления - указаны атмосферные явления, наблюдавшиеся в срок или в последний час перед сроком; фигурными скобками обозначены явления, наблюдавшиеся между сроками (за 1-3 часа до срока); квадратными скобками обозначены град или гололедные отложения с указанием их диаметра в мм.
Облачность - указаны через наклонную черту общая и нижняя облачность в баллах и высота нижней границы облаков в метрах; квадратными скобками обозначены формы облаков: Ci - перистые, Cs - перисто-слоистые, Cc - перисто-кучевые, Ac - высококучевые, As - высокослоистые, Sc - слоисто-кучевые, Ns - слоисто-дождевые, Cu - кучевые, Cb - кучево-дождевые. Подробнее классификацию облаков см. в Атласе облаков (PDF).
T - Температура воздуха - температура, измеренная на высоте 2 м над землей.
Td - Температура точки росы - температура, при понижении до которой содержащийся в воздухе водяной пар достигнет насыщения.
f - Относительная влажность воздуха - влажноcть воздуха, измеренная на высоте 2 м над землей.
Te - Эффективная температура - температура, которую ощущает одетый по сезону человек в тени. Характеристика душности погоды. При расчете учитывается влияние влажности воздуха и скорости ветра на теплоощущения человека.
Tes - Эффективная температура на солнце - температура, которую ощущает человек, с поправкой на солнечный нагрев. Характеристика знойности погоды. Зависит от высоты солнца над горизонтом, облачности и скорости ветра. Ночью, в пасмурную погоду, а также при ветре 12 м/с и более поправка равна нулю.
P - Атмосферное давление - приведенное к уровню моря атмосферное давление.
Po - Атмосферное давление - измеренное на уровне метеостанции атмосферное давление.
Tmin - Минимальная температура - минимум температуры воздуха на высоте 2 м над землей.
Tmax - Максимальная температура - максимум температуры воздуха на высоте 2 м над землей.
R - Количество осадков - Количество выпавших осадков за период времени, мм. При наведении курсора мыши на число - период времени, за который выпало указанное количество осадков.
R24 - Количество осадков - Количество выпавших осадков за 24 часа, мм.
S - Снежный покров - Высота снежного покрова, см. При наведении курсора мыши на число - состояние снежного покрова и степень покрытия местности в баллах.